Вернуться в каталог

HAWK-13B

АктивенНаукаSSO
NORAD 67396·PAYLOAD·🇺🇸 United States

Запущен Jan 11, 2026 с Vandenberg Space Force Base

Loading…

Ближайшие Пролёты (ближайшие 24 часа)

TLE

СвежийSource: Space-Track

Эпоха: Sep 13, 2026, 23:11 UTC

1 67396U 26004AK  26256.96639437  .00003533  00000-0  16829-3 0  9994
2 67396  97.4582 254.9428 0007647  37.7564 322.4206 15.19763281 37246

Отслеживайте HAWK-13B в реальном времени с AllMySat

Download on the App Store